Cork, Ireland

1:00 AM IST on June 27, 2017 (GMT +0100)
Cork

Weather History for EICK - April, 2013

Change the Weather History Date:

Tuesday, April 2, 2013

  Actual Average Record
Temperature  
Mean Temperature 39 °F -  
Max Temperature 43 °F 53 °F 62 °F (2008)
Min Temperature 35 °F 40 °F 35 °F (2013)
Degree Days  
Heating Degree Days 26    
Moisture  
Dew Point 31 °F    
Average Humidity 73    
Maximum Humidity 81    
Minimum Humidity 57    
Precipitation  
Precipitation 0.00 in 0.09 in - ()
Sea Level Pressure  
Sea Level Pressure 29.91 in    
Wind  
Wind Speed 17 mph ()    
Max Wind Speed 24 mph    
Max Gust Speed -    
Visibility 6.8 miles    
Events      
Averages and records for this station are not official NWS values.
T = Trace of Precipitation, MM = Missing Value Source: Averaged Metar Reports

Daily Weather History Graph

Daily Weather History Graph

Search for Another Location

Airport or City:

Trip Planner

Search our weather history database for the weather conditions in past years. The results will help you decide how hot, cold, wet, or windy it might be!

Date:

Astronomy

Apr. 02, 2013 Rise Set
Actual Time 7:06 AM IST 8:09 PM IST
Civil Twilight 6:32 AM IST 8:43 PM IST
Nautical Twilight 5:50 AM IST 9:25 PM IST
Astronomical Twilight 5:06 AM IST 10:10 PM IST
Moon 2:32 AM IST (4/2) 11:11 AM IST (4/2)
Length of Visible Light 14h 11m
Length of Day
13h 03m
Waning Gibbous, 58% of the Moon is Illuminated
Apr 2
Waning Gibbous
Apr 3
Last Quarter
Apr 10
New
Apr 18
First Quarter
Apr 25
Full

Hourly Weather History & Observations

Time (IST) Temp. Windchill Dew Point Humidity Pressure Visibility Wind Dir Wind Speed Gust Speed Precip Events Conditions
12:00 AM 39.2 °F 29.8 °F 30.2 °F 70% 29.80 in 6.2 mi East 18.4 mph - N/A   Overcast
12:30 AM 39.2 °F 29.6 °F 30.2 °F 70% 29.80 in 6.2 mi East 19.6 mph - N/A   Overcast
1:00 AM 38 °F - 30 °F 64% 29.83 in 11 mi East 20.1 mph - -   Overcast
1:00 AM 39.2 °F 29.6 °F 30.2 °F 70% 29.80 in 6.2 mi East 19.6 mph - N/A   Overcast
1:30 AM 39.2 °F 29.8 °F 30.2 °F 70% 29.80 in 6.2 mi ESE 18.4 mph - N/A   Overcast
2:00 AM 39.2 °F 30.8 °F 28.4 °F 65% 29.80 in 6.2 mi ESE 15.0 mph - N/A   Overcast
2:30 AM 37.4 °F 27.5 °F 32.0 °F 81% 29.80 in 6.2 mi East 18.4 mph - N/A   Overcast
3:00 AM 37.4 °F 27.5 °F 32.0 °F 81% 29.80 in 6.2 mi East 18.4 mph - N/A   Mostly Cloudy
3:30 AM 37.4 °F 27.2 °F 32.0 °F 81% 29.80 in 6.2 mi East 19.6 mph - N/A   Mostly Cloudy
4:00 AM 37.4 °F 26.9 °F 32.0 °F 81% 29.80 in - East 20.7 mph - N/A   Mostly Cloudy
4:30 AM 37.4 °F 27.2 °F 32.0 °F 81% 29.80 in 6.2 mi East 19.6 mph - N/A   Mostly Cloudy
5:00 AM 37.4 °F 27.2 °F 32.0 °F 81% 29.80 in 6.2 mi East 19.6 mph - N/A   Overcast
5:30 AM 37.4 °F 27.2 °F 32.0 °F 81% 29.83 in 6.2 mi East 19.6 mph - N/A   Mostly Cloudy
6:00 AM 37.4 °F 27.8 °F 32.0 °F 81% 29.83 in 6.2 mi East 17.3 mph - N/A   Mostly Cloudy
6:30 AM 37.4 °F 27.2 °F 30.2 °F 75% 29.83 in 6.2 mi East 19.6 mph - N/A   Mostly Cloudy
7:00 AM 37 °F - 31 °F 71% 29.87 in 12 mi East 17.9 mph - -   Overcast
7:00 AM 37.4 °F 27.5 °F 30.2 °F 75% 29.83 in 6.2 mi East 18.4 mph - N/A   Mostly Cloudy
7:30 AM 35.6 °F 24.2 °F 30.2 °F 81% 29.83 in 6.2 mi East 21.9 mph - N/A   Mostly Cloudy
8:00 AM 35.6 °F 24.8 °F 30.2 °F 81% 29.86 in 6.2 mi East 19.6 mph - N/A   Mostly Cloudy
8:30 AM 35.6 °F 25.2 °F 30.2 °F 81% 29.86 in 6.2 mi East 18.4 mph - N/A   Mostly Cloudy
9:00 AM 35.6 °F 25.2 °F 30.2 °F 81% 29.89 in 6.2 mi East 18.4 mph - N/A   Mostly Cloudy
9:30 AM 37.4 °F 27.5 °F 30.2 °F 75% 29.89 in 6.2 mi East 18.4 mph - N/A   Mostly Cloudy
10:00 AM 37.4 °F 27.5 °F 32.0 °F 81% 29.89 in 6.2 mi East 18.4 mph - N/A   Mostly Cloudy
10:30 AM 39.2 °F 29.0 °F 32.0 °F 75% 29.89 in 6.2 mi East 21.9 mph - N/A   Mostly Cloudy
11:00 AM 39.2 °F 29.3 °F 32.0 °F 75% 29.92 in 6.2 mi East 20.7 mph - N/A   Mostly Cloudy
11:30 AM 39.2 °F 29.6 °F 32.0 °F 75% 29.92 in 6.2 mi East 19.6 mph - N/A   Mostly Cloudy
12:00 PM 39.2 °F 29.3 °F 33.8 °F 81% 29.92 in 6.2 mi East 20.7 mph - N/A   Mostly Cloudy
12:30 PM 41.0 °F 31.4 °F 32.0 °F 70% 29.92 in 6.2 mi East 21.9 mph - N/A   Mostly Cloudy
1:00 PM 41 °F - 31 °F 57% 29.97 in 12 mi East 20.1 mph - -   Mostly Cloudy
1:00 PM 41.0 °F 31.6 °F 32.0 °F 70% 29.95 in 6.2 mi East 20.7 mph - N/A   Scattered Clouds
1:30 PM 42.8 °F 33.3 °F 30.2 °F 61% 29.95 in 6.2 mi East 24.2 mph - N/A   Mostly Cloudy
2:00 PM 41.0 °F 31.6 °F 30.2 °F 65% 29.95 in 6.2 mi East 20.7 mph - N/A   Mostly Cloudy
2:30 PM 42.8 °F 34.0 °F 32.0 °F 66% 29.95 in 6.2 mi East 20.7 mph - N/A   Mostly Cloudy
3:00 PM 42.8 °F 33.5 °F 32.0 °F 66% 29.95 in 6.2 mi East 23.0 mph - N/A   Mostly Cloudy
3:30 PM 41.0 °F 31.4 °F 30.2 °F 65% 29.95 in 6.2 mi East 21.9 mph - N/A   Scattered Clouds
4:00 PM 41.0 °F 31.6 °F 30.2 °F 65% 29.98 in 6.2 mi East 20.7 mph - N/A   Scattered Clouds
4:30 PM 41.0 °F 31.6 °F 30.2 °F 65% 29.95 in 6.2 mi East 20.7 mph - N/A   Partly Cloudy
5:00 PM 41.0 °F 31.6 °F 28.4 °F 61% 29.98 in 6.2 mi East 20.7 mph - N/A   Partly Cloudy
5:30 PM 39.2 °F 29.8 °F 30.2 °F 70% 29.98 in 6.2 mi East 18.4 mph - N/A   Mostly Cloudy
6:00 PM 39.2 °F 29.8 °F 33.8 °F 81% 29.98 in 6.2 mi East 18.4 mph - N/A   Mostly Cloudy
6:30 PM 39.2 °F 30.5 °F 30.2 °F 70% 29.98 in 6.2 mi East 16.1 mph - N/A   Mostly Cloudy
7:00 PM 38 °F - 29 °F 62% 30.03 in 19 mi East 17.9 mph - -   Scattered Clouds
7:00 PM 39.2 °F 30.2 °F 30.2 °F 70% 30.01 in 6.2 mi East 17.3 mph - N/A   Mostly Cloudy
7:30 PM 37.4 °F 28.5 °F 28.4 °F 70% 30.01 in 6.2 mi East 15.0 mph - N/A   Partly Cloudy
8:00 PM 37.4 °F 29.3 °F 30.2 °F 75% 30.01 in 6.2 mi East 12.7 mph - N/A   Partly Cloudy
8:30 PM 35.6 °F 28.0 °F 30.2 °F 81% 30.01 in 6.2 mi East 10.4 mph - N/A   Partly Cloudy
9:00 PM 37.4 °F 30.3 °F 30.2 °F 75% 30.04 in 6.2 mi East 10.4 mph - N/A   Partly Cloudy
9:30 PM 37.4 °F 30.3 °F 30.2 °F 75% 30.04 in 6.2 mi East 10.4 mph - N/A   Scattered Clouds
10:00 PM 37.4 °F 29.8 °F 30.2 °F 75% 30.04 in 6.2 mi ENE 11.5 mph - N/A   Mostly Cloudy
10:30 PM 35.6 °F 27.5 °F 30.2 °F 81% 30.04 in 6.2 mi ENE 11.5 mph - N/A   Mostly Cloudy
11:00 PM 35.6 °F 27.1 °F 30.2 °F 81% 30.04 in 6.2 mi NE 12.7 mph - N/A   Mostly Cloudy
11:30 PM 35.6 °F 27.5 °F 30.2 °F 81% 30.04 in 6.2 mi NE 11.5 mph - N/A   Mostly Cloudy